Weather History for Culdrose, United Kingdom

Change the Weather History Date:

Sunday, April 13, 2014

  Actual Average Record
Temperature  
Mean Temperature 48 °F -  
Max Temperature 53 °F 53 °F 57 °F (1997)
Min Temperature 42 °F 44 °F 32 °F (1998)
Degree Days  
Heating Degree Days 16    
Moisture  
Dew Point 42 °F    
Average Humidity 74    
Maximum Humidity 94    
Minimum Humidity 53    
Precipitation  
Precipitation 0.00 in - - ()
Sea Level Pressure  
Sea Level Pressure 30.27 in    
Wind  
Wind Speed 7 mph ()    
Max Wind Speed 13 mph    
Max Gust Speed -    
Visibility 9.5 miles    
Events Rain    
Averages and records for this station are not official NWS values.
T = Trace of Precipitation, MM = Missing Value Source: Averaged Metar Reports

Daily Weather History Graph

Daily Weather History Graph

Search for Another Location

Airport:

Trip Planner

Search our weather history database for the weather conditions in past years. The results will help you decide how hot, cold, wet, or windy it might be!

Date:

Astronomy

Apr. 13, 2014 Rise Set
Actual Time 6:32 AM BST 8:11 PM BST
Civil Twilight 5:58 AM BST 8:45 PM BST
Nautical Twilight 5:16 AM BST 9:27 PM BST
Astronomical Twilight 4:31 AM BST 10:13 PM BST
Moon 6:27 PM BST (4/13) 5:35 AM BST (4/13)
Length of Visible Light 14h 47m
Length of Day
13h 39m
Waxing Gibbous, 96% of the Moon is Illuminated
Apr 13
Waxing Gibbous
Apr 15
Full
Apr 22
Last Quarter
Apr 29
New
May 7
First Quarter

Hourly Weather History & Observations

Time (BST) Temp. Windchill Dew Point Humidity Pressure Visibility Wind Dir Wind Speed Gust Speed Precip Events Conditions
12:00 AM 50 °F - 49 °F 94% 30.22 in 7 mi WNW 6.9 mph - - Rain Light Drizzle
12:50 AM 48.2 °F - 46.4 °F 93% 30.18 in 6.2 mi WNW 4.6 mph - N/A   Haze
1:00 AM 49 °F - 47 °F 91% 30.22 in 10 mi WNW 4.6 mph - -   Haze
1:50 AM 48.2 °F - 46.4 °F 93% 30.18 in 6.2 mi WNW 4.6 mph - N/A   Haze
2:00 AM 49 °F - 46 °F 87% 30.21 in 10 mi WNW 4.6 mph - -   Haze
2:50 AM 48.2 °F - 46.4 °F 93% 30.18 in 6.2 mi North 4.6 mph - N/A   Haze
3:00 AM 48 °F - 46 °F 91% 30.21 in 10 mi North 4.6 mph - -   Haze
3:50 AM 48.2 °F - 44.6 °F 87% 30.21 in 6.2 mi North 6.9 mph - N/A   Haze
4:00 AM 47 °F - 45 °F 88% 30.22 in 11 mi North 6.9 mph - -   Haze
4:50 AM 48.2 °F - 42.8 °F 82% 30.21 in 6.2 mi North 9.2 mph - N/A   Haze
5:00 AM 47 °F - 43 °F 80% 30.23 in 11 mi North 9.2 mph - -   Haze
5:50 AM 46.4 °F 42.9 °F 42.8 °F 87% 30.24 in 6.2 mi North 6.9 mph - N/A   Haze
6:00 AM 46 °F - 43 °F 84% 30.25 in 11 mi North 6.9 mph - -   Haze
6:50 AM 44.6 °F 40.2 °F 41.0 °F 87% 30.24 in 6.2 mi North 8.1 mph - N/A   Partly Cloudy
7:00 AM 44 °F - 41 °F 86% 30.27 in 12 mi North 8.1 mph - -   Scattered Clouds
7:50 AM 46.4 °F 42.4 °F 42.8 °F 87% 30.27 in 6.2 mi North 8.1 mph - N/A   Partly Cloudy
8:00 AM 46 °F - 42 °F 82% 30.28 in 12 mi North 8.1 mph - -   Scattered Clouds
8:50 AM 48.2 °F - 42.8 °F 82% 30.27 in 6.2 mi NNW 4.6 mph - N/A   Scattered Clouds
9:50 AM 50.0 °F - 42.8 °F 76% 30.30 in 6.2 mi NNE 10.4 mph - N/A   Scattered Clouds
10:00 AM 51 °F - 42 °F 64% 30.31 in 16 mi NNE 10.4 mph - -   Partly Cloudy
10:50 AM 51.8 °F - 41.0 °F 67% 30.30 in 6.2 mi North 8.1 mph - N/A   Scattered Clouds
11:00 AM 51 °F - 40 °F 57% 30.31 in 17 mi North 8.1 mph - -   Partly Cloudy
11:50 AM 51.8 °F - 41.0 °F 67% 30.30 in 6.2 mi North 11.5 mph - N/A   Mostly Cloudy
12:00 PM 51 °F - 41 °F 59% 30.31 in 16 mi North 11.5 mph - -   Mostly Cloudy
12:50 PM 53.6 °F - 41.0 °F 62% 30.30 in 6.2 mi North 10.4 mph - N/A   Scattered Clouds
1:00 PM 53 °F - 41 °F 54% 30.30 in 19 mi North 10.4 mph - -   Partly Cloudy
1:50 PM 51.8 °F - 41.0 °F 67% 30.27 in 6.2 mi North 9.2 mph - N/A   Scattered Clouds
2:00 PM 53 °F - 42 °F 55% 30.30 in 16 mi North 9.2 mph - -   Partly Cloudy
2:50 PM 51.8 °F - 39.2 °F 62% 30.27 in 6.2 mi North 11.5 mph - N/A   Scattered Clouds
3:00 PM 51 °F - 39 °F 53% 30.30 in 16 mi North 11.5 mph - -   Partly Cloudy
3:50 PM 51.8 °F - 39.2 °F 62% 30.27 in 6.2 mi North 10.4 mph - N/A   Scattered Clouds
4:00 PM 51 °F - 39 °F 53% 30.30 in 14 mi North 10.4 mph - -   Partly Cloudy
4:50 PM 50.0 °F - 39.2 °F 66% 30.27 in 6.2 mi North 12.7 mph - N/A   Scattered Clouds
5:00 PM 50 °F - 39 °F 55% 30.30 in 16 mi North 12.7 mph - -   Partly Cloudy
5:50 PM 50.0 °F - 39.2 °F 66% 30.27 in 6.2 mi North 9.2 mph - N/A   Partly Cloudy
6:00 PM 49 °F - 39 °F 59% 30.29 in 14 mi North 9.2 mph - -   Partly Cloudy
6:50 PM 48.2 °F - 39.2 °F 71% 30.27 in 6.2 mi NNW 10.4 mph - N/A   Mostly Cloudy
7:00 PM 49 °F - 39 °F 58% 30.30 in 12 mi NNW 10.4 mph - -   Mostly Cloudy
7:50 PM 48.2 °F - 39.2 °F 71% 30.30 in 6.2 mi NNW 11.5 mph - N/A   Mostly Cloudy
8:00 PM 48 °F - 38 °F 60% 30.31 in 12 mi NNW 11.5 mph - -   Mostly Cloudy
8:50 PM 48.2 °F - 39.2 °F 71% 30.30 in 6.2 mi NW 9.2 mph - N/A   Mostly Cloudy
9:00 PM 47 °F - 39 °F 66% 30.31 in 12 mi NW 9.2 mph - -   Mostly Cloudy
9:50 PM 46.4 °F 42.9 °F 39.2 °F 76% 30.30 in 6.2 mi WNW 6.9 mph - N/A   Scattered Clouds
10:00 PM 46 °F - 39 °F 70% 30.32 in 12 mi WNW 6.9 mph - -   Mostly Cloudy
10:50 PM 44.6 °F 40.7 °F 39.2 °F 81% 30.30 in 6.2 mi WNW 6.9 mph - N/A   Partly Cloudy
11:00 PM 44 °F - 39 °F 76% 30.31 in 12 mi WNW 6.9 mph - -   Scattered Clouds
11:50 PM 42.8 °F 40.1 °F 39.2 °F 87% 30.27 in 6.2 mi WNW 4.6 mph - N/A   Haze